Fort Sill, OK

4:30 AM CST on February 21, 2017 (GMT -0600)
Post Army Air Field

Weather History for KFSI - January, 2014

Change the Weather History Date:

Sunday, January 19, 2014

  Actual Average Record
Temperature  
Mean Temperature 46 °F -  
Max Temperature 67 °F 46 °F 76 °F (1951)
Min Temperature 25 °F 25 °F 5 °F (1963)
Degree Days  
Heating Degree Days 19    
Moisture  
Dew Point 22 °F    
Average Humidity 41    
Maximum Humidity 74    
Minimum Humidity 17    
Precipitation  
Precipitation 0.00 in - - ()
Sea Level Pressure  
Sea Level Pressure 30.12 in    
Wind  
Wind Speed 7 mph (SW)    
Max Wind Speed 17 mph    
Max Gust Speed 25 mph    
Visibility 10 miles    
Events      
Averages and records for this station are not official NWS values.
T = Trace of Precipitation, MM = Missing Value Source: NWS Daily Summary

Daily Weather History Graph

Daily Weather History Graph

Search for Another Location

Airport or City:

Trip Planner

Search our weather history database for the weather conditions in past years. The results will help you decide how hot, cold, wet, or windy it might be!

Date:

Astronomy

Jan. 19, 2014 Rise Set
Actual Time 7:39 AM CST 5:50 PM CST
Civil Twilight 7:11 AM CST 6:17 PM CST
Nautical Twilight 6:41 AM CST 6:47 PM CST
Astronomical Twilight 6:10 AM CST 7:18 PM CST
Moon 9:18 PM CST (1/19) 9:19 AM CST (1/19)
Length of Visible Light 11h 05m
Length of Day
10h 11m
Waning Gibbous, 89% of the Moon is Illuminated
Jan 19
Waning Gibbous
Jan 23
Last Quarter
Jan 30
New
Feb 6
First Quarter
Feb 14
Full

Hourly Weather History & Observations

Time (CST) Temp. Windchill Dew Point Humidity Pressure Visibility Wind Dir Wind Speed Gust Speed Precip Events Conditions
12:58 AM 42.3 °F 38.6 °F 19.4 °F 40% 30.20 in 10.0 mi NNW 5.8 mph - N/A   Clear
1:58 AM 37.0 °F - 19.6 °F 49% 30.21 in 10.0 mi North 1.2 mph - N/A   Clear
2:58 AM 35.4 °F 31.5 °F 19.9 °F 53% 30.22 in 10.0 mi West 4.6 mph - N/A   Clear
3:58 AM 31.1 °F - 19.8 °F 63% 30.22 in 10.0 mi ENE 1.2 mph - N/A   Clear
4:58 AM 31.1 °F 24.5 °F 19.8 °F 63% 30.25 in 10.0 mi West 6.9 mph - N/A   Clear
5:58 AM 33.1 °F 30.0 °F 20.3 °F 59% 30.25 in 10.0 mi West 3.5 mph - N/A   Clear
6:58 AM 25.3 °F - 18.0 °F 74% 30.25 in 10.0 mi Calm Calm - N/A   Clear
7:58 AM 27.3 °F 22.0 °F 19.2 °F 72% 30.25 in 10.0 mi WSW 4.6 mph - N/A   Clear
8:58 AM 34.9 °F - 24.1 °F 65% 30.25 in 10.0 mi Calm Calm - N/A   Clear
9:58 AM 46.2 °F 40.5 °F 22.3 °F 39% 30.25 in 10.0 mi SW 12.7 mph - N/A   Clear
10:58 AM 50.5 °F - 23.4 °F 35% 30.24 in 10.0 mi SW 13.8 mph - N/A   Clear
11:58 AM 55.0 °F - 22.5 °F 28% 30.20 in 10.0 mi SW 11.5 mph 23.0 mph N/A   Clear
12:58 PM 60.4 °F - 21.9 °F 23% 30.13 in 10.0 mi SW 17.3 mph 25.3 mph N/A   Clear
1:58 PM 64.0 °F - 22.5 °F 20% 30.09 in 10.0 mi SW 15.0 mph 25.3 mph N/A   Clear
2:58 PM 66.2 °F - 21.9 °F 19% 30.04 in 10.0 mi SW 17.3 mph 23.0 mph N/A   Clear
3:58 PM 67.8 °F - 21.7 °F 17% 30.02 in 10.0 mi SSW 13.8 mph 24.2 mph N/A   Clear
4:58 PM 67.5 °F - 21.2 °F 17% 29.99 in 10.0 mi SSW 11.5 mph - N/A   Clear
5:58 PM 62.8 °F - 22.1 °F 21% 29.98 in 10.0 mi SSW 10.4 mph - N/A   Clear
6:58 PM 55.8 °F - 23.4 °F 29% 29.99 in 10.0 mi South 9.2 mph - N/A   Clear
7:58 PM 50.4 °F - 23.7 °F 35% 30.00 in 10.0 mi South 8.1 mph - N/A   Clear
8:58 PM 49.5 °F - 22.6 °F 35% 29.99 in 10.0 mi SSW 9.2 mph - N/A   Clear
9:58 PM 48.2 °F - 23.4 °F 38% 29.96 in 10.0 mi SSW 6.9 mph - N/A   Clear
10:58 PM 44.8 °F - 22.6 °F 42% 29.97 in 10.0 mi Calm Calm - N/A   Clear
11:58 PM 42.1 °F - 22.6 °F 46% 29.95 in 10.0 mi SW 2.3 mph - N/A   Clear